CW0630 Weather Reports


Display with metric or nautical units.
time (UTC)temp
F
wind
direction
speed
MPH
gust
MPH
rain 1hr
in
rain 24hr
in
rain mn
in
humidity
%
barometer
mb
20181018211455 56 357 2.0 5.0 0.00 0.00 0.00 61 1029.0
20181018211015 57 316 3.0 5.0 0.00 0.00 0.00 58 1028.9
20181018210458 57 56 2.0 9.0 0.00 0.00 0.00 58 1028.9
20181018205959 57 357 3.0 10.0 0.00 0.00 0.00 55 1028.9
20181018205505 57 347 5.0 10.0 0.00 0.00 0.00 55 1028.9
20181018205002 57 27 3.0 6.0 0.00 0.00 0.00 54 1028.9
20181018204508 58 8 0.0 8.0 0.00 0.00 0.00 57 1028.9
20181018204009 58 17 2.0 9.0 0.00 0.00 0.00 51 1028.9
20181018203512 58 21 5.0 9.0 0.00 0.00 0.00 52 1028.9
20181018203012 58 334 2.0 6.0 0.00 0.00 0.00 51 1028.9
20181018202458 58 24 3.0 7.0 0.00 0.00 0.00 50 1028.8
20181018202015 59 338 2.0 7.0 0.00 0.00 0.00 50 1028.9
20181018201503 59 71 1.0 6.0 0.00 0.00 0.00 52 1028.9
20181018201005 59 21 3.0 10.0 0.00 0.00 0.00 50 1028.9
20181018200507 59 326 6.0 10.0 0.00 0.00 0.00 49 1028.9
20181018200008 59 43 2.0 11.0 0.00 0.00 0.00 54 1028.9
20181018195514 59 35 7.0 11.0 0.00 0.00 0.00 49 1029.0
20181018195011 59 348 4.0 9.0 0.00 0.00 0.00 49 1029.1
20181018194456 60 12 4.0 10.0 0.00 0.00 0.00 50 1029.1
20181018193956 60 10 6.0 11.0 0.00 0.00 0.00 49 1029.1
20181018193459 60 8 2.0 11.0 0.00 0.00 0.00 48 1029.0
20181018193000 60 16 3.0 7.0 0.00 0.00 0.00 50 1029.0
20181018192506 60 6 4.0 9.0 0.00 0.00 0.00 48 1029.0
20181018192004 60 20 3.0 9.0 0.00 0.00 0.00 48 1029.1
20181018191514 60 338 1.0 10.0 0.00 0.00 0.00 51 1029.2
20181018191013 60 14 6.0 10.0 0.00 0.00 0.00 50 1029.2
20181018190456 60 6 3.0 11.0 0.00 0.00 0.00 49 1029.2
20181018185957 60 316 1.0 13.0 0.00 0.00 0.00 52 1029.2
20181018185503 60 2 8.0 13.0 0.00 0.00 0.00 50 1029.2
20181018185000 60 31 7.0 12.0 0.00 0.00 0.00 49 1029.1
20181018184506 61 15 5.0 12.0 0.00 0.00 0.00 48 1029.2
20181018184007 61 2 5.0 13.0 0.00 0.00 0.00 49 1029.1
20181018183510 61 2 6.0 13.0 0.00 0.00 0.00 44 1029.2
20181018183012 61 357 3.0 7.0 0.00 0.00 0.00 47 1029.4
20181018182456 61 347 4.0 11.0 0.00 0.00 0.00 46 1029.5
20181018181958 61 17 3.0 11.0 0.00 0.00 0.00 53 1029.5
20181018181503 61 258 2.0 10.0 0.00 0.00 0.00 54 1029.6
20181018181006 60 299 4.0 10.0 0.00 0.00 0.00 47 1029.7
20181018180508 60 2 5.0 11.0 0.00 0.00 0.00 49 1029.7
20181018180009 60 2 5.0 18.0 0.00 0.00 0.00 50 1029.8
20181018175514 60 13 7.0 18.0 0.00 0.00 0.00 55 1029.7
20181018175013 60 329 4.0 8.0 0.00 0.00 0.00 52 1029.9
20181018174457 60 15 1.0 15.0 0.00 0.00 0.00 52 1030.0
20181018173958 61 352 7.0 15.0 0.00 0.00 0.00 52 1030.0
20181018173459 61 342 3.0 8.0 0.00 0.00 0.00 54 1030.1
20181018172957 60 58 2.0 9.0 0.00 0.00 0.00 49 1030.3
20181018172503 60 12 5.0 11.0 0.00 0.00 0.00 53 1030.4
20181018172005 60 343 4.0 11.0 0.00 0.00 0.00 50 1030.5
20181018171510 60 16 1.0 11.0 0.00 0.00 0.00 55 1030.4
20181018171010 60 6 5.0 11.0 0.00 0.00 0.00 51 1030.6
20181018170513 60 26 5.0 11.0 0.00 0.00 0.00 48 1030.7
20181018170013 59 295 2.0 16.0 0.00 0.00 0.00 55 1030.5
20181018165459 59 342 10.0 16.0 0.00 0.00 0.00 51 1030.5
20181018164956 60 264 2.0 16.0 0.00 0.00 0.00 51 1030.8
20181018164501 60 347 6.0 16.0 0.00 0.00 0.00 53 1030.9
20181018164002 60 29 3.0 12.0 0.00 0.00 0.00 57 1030.8
20181018163508 59 310 3.0 10.0 0.00 0.00 0.00 56 1030.8
20181018163008 59 15 5.0 11.0 0.00 0.00 0.00 52 1031.1
20181018162459 59 339 6.0 13.0 0.00 0.00 0.00 54 1031.0
20181018161958 58 314 4.0 13.0 0.00 0.00 0.00 55 1031.0
20181018161504 58 345 9.0 13.0 0.00 0.00 0.00 54 1031.2
20181018161005 59 341 3.0 9.0 0.00 0.00 0.00 53 1031.3
20181018160509 58 2 3.0 12.0 0.00 0.00 0.00 57 1031.1
20181018160011 58 41 5.0 12.0 0.00 0.00 0.00 55 1031.1
20181018155457 57 345 7.0 14.0 0.00 0.00 0.00 56 1031.3
20181018155014 57 357 5.0 14.0 0.00 0.00 0.00 56 1031.3
20181018154459 56 14 6.0 15.0 0.00 0.00 0.00 56 1031.2
20181018153956 56 2 9.0 15.0 0.00 0.00 0.00 57 1031.3
20181018153459 57 6 5.0 13.0 0.00 0.00 0.00 57 1031.3
20181018152959 57 31 5.0 13.0 0.00 0.00 0.00 57 1031.3
20181018152509 57 48 7.0 13.0 0.00 0.00 0.00 57 1031.3
20181018152008 56 299 7.0 11.0 0.00 0.00 0.00 56 1031.4
20181018151511 56 29 5.0 16.0 0.00 0.00 0.00 61 1031.3
20181018151012 55 47 9.0 16.0 0.00 0.00 0.00 61 1031.3
20181018150456 55 33 4.0 15.0 0.00 0.00 0.00 59 1031.4
20181018145955 56 12 7.0 15.0 0.00 0.00 0.00 60 1031.5
20181018145502 55 352 7.0 12.0 0.00 0.00 0.00 64 1031.3
20181018145002 55 43 6.0 11.0 0.00 0.00 0.00 59 1031.3
20181018144508 55 357 6.0 13.0 0.00 0.00 0.00 62 1031.5
20181018144010 55 2 7.0 17.0 0.00 0.00 0.00 62 1031.4
20181018143514 54 6 8.0 17.0 0.00 0.00 0.00 65 1031.2
20181018143000 55 311 8.0 15.0 0.00 0.00 0.00 63 1031.3
20181018142506 55 29 7.0 15.0 0.00 0.00 0.00 62 1031.4
20181018142001 55 23 4.0 13.0 0.00 0.00 0.00 62 1031.2
20181018141507 54 37 4.0 13.0 0.00 0.00 0.00 65 1031.2
20181018141007 54 39 6.0 14.0 0.00 0.00 0.00 65 1031.2
20181018140512 53 2 7.0 14.0 0.00 0.00 0.00 63 1031.1
20181018140011 54 35 9.0 14.0 0.00 0.00 0.00 66 1031.1
20181018135457 53 357 7.0 15.0 0.00 0.00 0.00 67 1031.1
20181018135013 53 6 9.0 15.0 0.00 0.00 0.00 66 1031.1
20181018134456 53 6 7.0 13.0 0.00 0.00 0.00 67 1031.2
20181018133957 52 25 7.0 13.0 0.00 0.00 0.00 69 1031.2
20181018133500 52 48 7.0 12.0 0.00 0.00 0.00 68 1031.1
20181018133005 52 11 6.0 13.0 0.00 0.00 0.00 67 1031.1
20181018132511 51 23 4.0 13.0 0.00 0.00 0.00 70 1031.1
20181018132010 51 15 3.0 11.0 0.00 0.00 0.00 71 1031.0
20181018131456 51 328 4.0 12.0 0.00 0.00 0.00 73 1030.8
20181018130956 50 347 4.0 12.0 0.00 0.00 0.00 73 1030.8
20181018130500 50 6 5.0 11.0 0.00 0.00 0.00 73 1030.9
20181018130000 49 23 6.0 10.0 0.00 0.00 0.00 73 1030.8
20181018125506 49 8 5.0 11.0 0.00 0.00 0.00 75 1030.7
20181018125004 49 348 6.0 11.0 0.00 0.00 0.00 75 1030.7
20181018124512 48 8 6.0 13.0 0.00 0.00 0.00 76 1030.5
20181018124013 47 357 6.0 13.0 0.00 0.00 0.00 78 1030.3
20181018123501 46 306 6.0 11.0 0.00 0.00 0.00 79 1030.2
20181018123002 46 23 4.0 8.0 0.00 0.00 0.00 81 1030.2
20181018122508 45 8 4.0 8.0 0.00 0.00 0.00 82 1030.2
20181018122007 45 18 3.0 9.0 0.00 0.00 0.00 83 1030.0
20181018121513 45 8 4.0 9.0 0.00 0.00 0.00 84 1029.9
20181018121014 45 341 4.0 6.0 0.00 0.00 0.00 84 1029.9
20181018120457 44 2 3.0 6.0 0.00 0.00 0.00 84 1029.8
20181018115958 44 2 3.0 8.0 0.00 0.00 0.00 85 1029.7
20181018115505 44 347 3.0 8.0 0.00 0.00 0.00 86 1029.5
20181018115004 44 35 4.0 7.0 0.00 0.00 0.00 87 1029.5
20181018114509 44 6 3.0 6.0 0.00 0.00 0.00 88 1029.4
20181018114009 43 328 4.0 6.0 0.00 0.00 0.00 89 1029.4
20181018113456 43 345 2.0 4.0 0.00 0.00 0.00 91 1029.3
20181018112957 43 331 1.0 3.0 0.00 0.00 0.00 91 1029.2
20181018112505 43 330 1.0 4.0 0.00 0.00 0.00 90 1029.1
20181018112002 43 330 2.0 4.0 0.00 0.00 0.00 90 1029.1
20181018111508 43 341 2.0 4.0 0.00 0.00 0.00 89 1029.0
20181018111008 43 357 2.0 4.0 0.00 0.00 0.00 89 1029.0
20181018110512 44 357 1.0 4.0 0.00 0.00 0.00 90 1028.9
20181018110014 44 357 1.0 4.0 0.00 0.00 0.00 89 1028.9
20181018105500 44 14 2.0 3.0 0.00 0.00 0.00 89 1028.7
20181018105001 44 14 2.0 3.0 0.00 0.00 0.00 88 1028.7
20181018104508 44 14 1.0 2.0 0.00 0.00 0.00 88 1028.6
20181018104014 44 14 1.0 4.0 0.00 0.00 0.00 88 1028.6
20181018103458 44 14 1.0 4.0 0.00 0.00 0.00 88 1028.4
20181018102958 44 39 2.0 3.0 0.00 0.00 0.00 89 1028.3
20181018102506 44 41 1.0 2.0 0.00 0.00 0.00 88 1028.3
20181018102004 44 41 0.0 2.0 0.00 0.00 0.00 87 1028.3
20181018101004 45 348 2.0 3.0 0.00 0.00 0.00 86 1028.0
20181018100509 45 352 1.0 2.0 0.00 0.00 0.00 86 1027.9
20181018100011 46 352 1.0 3.0 0.00 0.00 0.00 84 1028.0
20181018095456 46 352 1.0 3.0 0.00 0.00 0.00 84 1027.8
20181018095016 46 8 1.0 4.0 0.00 0.00 0.00 83 1027.8
20181018094502 46 357 2.0 4.0 0.00 0.00 0.00 83 1027.6
20181018094006 47 6 3.0 6.0 0.00 0.00 0.00 81 1027.5
20181018093513 47 2 3.0 6.0 0.00 0.00 0.00 81 1027.5
20181018093013 47 347 3.0 6.0 0.00 0.00 0.00 81 1027.5
20181018092502 47 16 3.0 5.0 0.00 0.00 0.00 82 1027.4
20181018092001 47 342 3.0 6.0 0.00 0.00 0.00 81 1027.1
20181018091008 47 332 2.0 5.0 0.00 0.00 0.00 80 1027.1
20181018090511 47 48 3.0 6.0 0.00 0.00 0.00 80 1027.0
20181018090013 47 31 3.0 8.0 0.00 0.00 0.00 80 1027.1
20181018085459 47 352 3.0 8.0 0.00 0.00 0.00 80 1026.7
20181018084957 48 16 4.0 7.0 0.00 0.00 0.00 80 1026.9
20181018084504 48 333 3.0 6.0 0.00 0.00 0.00 79 1027.0
20181018084010 48 324 3.0 6.0 0.00 0.00 0.00 78 1027.0
20181018083514 48 25 4.0 6.0 0.00 0.00 0.00 79 1027.0
20181018083016 48 337 3.0 7.0 0.00 0.00 0.00 79 1026.8
20181018082502 48 17 3.0 6.0 0.00 0.00 0.00 79 1026.8
20181018082003 48 8 4.0 6.0 0.00 0.00 0.00 79 1026.6
20181018081507 48 337 3.0 8.0 0.00 0.00 0.00 79 1026.6
20181018081008 48 327 3.0 8.0 0.00 0.00 0.00 78 1026.7
20181018080513 48 8 3.0 6.0 0.00 0.00 0.00 79 1026.5
20181018080013 48 357 4.0 9.0 0.00 0.01 0.00 79 1026.3
20181018075500 49 18 3.0 9.0 0.00 0.01 0.00 78 1026.3
20181018074959 49 331 4.0 9.0 0.00 0.01 0.00 78 1026.4
20181018074509 49 19 4.0 9.0 0.00 0.01 0.00 79 1026.3
20181018074012 49 344 4.0 8.0 0.00 0.01 0.00 79 1026.2
20181018073514 49 316 4.0 8.0 0.00 0.01 0.00 80 1026.1
20181018072956 49 352 4.0 9.0 0.00 0.01 0.00 80 1026.2
20181018072503 48 7 4.0 9.0 0.00 0.01 0.00 82 1026.1
20181018072002 48 2 4.0 8.0 0.00 0.01 0.00 84 1026.0
20181018071507 48 28 2.0 4.0 0.00 0.01 0.00 85 1025.9
20181018071007 48 46 0.0 3.0 0.00 0.01 0.00 85 1025.8
20181018070513 48 48 1.0 4.0 0.00 0.01 0.00 84 1025.6
20181018070014 49 23 2.0 5.0 0.00 0.02 0.00 85 1025.6
20181018065500 49 6 2.0 5.0 0.00 0.02 0.00 85 1025.5
20181018065002 49 23 2.0 6.0 0.00 0.02 0.00 84 1025.4
20181018064509 49 2 4.0 6.0 0.00 0.02 0.00 86 1025.4
20181018064010 49 2 3.0 5.0 0.00 0.02 0.00 87 1025.4
20181018063515 49 2 2.0 5.0 0.00 0.02 0.00 87 1025.2
20181018063015 49 324 3.0 9.0 0.00 0.02 0.00 88 1025.2
20181018062502 48 14 4.0 9.0 0.00 0.02 0.00 89 1025.0
20181018062001 47 2 4.0 8.0 0.00 0.02 0.00 93 1024.9
20181018061506 47 2 4.0 6.0 0.00 0.02 0.00 94 1024.8
20181018061007 47 194 0.0 2.0 0.00 0.02 0.00 94 1024.6
20181018060511 47 194 0.0 1.0 0.00 0.02 0.00 93 1024.7
20181018060013 47 194 1.0 1.0 0.00 0.06 0.00 93 1024.7
20181018055504 47 194 0.0 3.0 0.00 0.06 0.00 93 1024.5
20181018055003 48 194 2.0 3.0 0.00 0.06 0.00 93 1024.5
20181018054509 47 194 2.0 3.0 0.00 0.06 0.00 93 1024.4
20181018054012 47 194 2.0 3.0 0.00 0.06 0.00 93 1024.3
20181018053458 47 194 2.0 3.0 0.00 0.06 0.00 92 1024.4
20181018053036 47 194 1.0 2.0 0.00 0.06 0.00 92 1024.4
20181018052501 48 194 1.0 2.0 0.00 0.06 0.00 92 1024.3
20181018052001 48 194 0.0 3.0 0.00 0.06 0.00 91 1024.2
20181018051508 48 194 1.0 3.0 0.00 0.06 0.00 91 1024.1
20181018051009 48 204 1.0 3.0 0.00 0.06 0.00 91 1024.0
20181018050515 48 352 1.0 2.0 0.00 0.06 0.00 90 1023.9
20181018045959 48 352 0.0 1.0 0.00 0.14 0.00 90 1023.8
20181018045510 48 352 0.0 2.0 0.00 0.14 0.00 91 1023.8
20181018045011 48 352 0.0 2.0 0.00 0.14 0.00 91 1023.8
20181018044456 48 352 1.0 2.0 0.00 0.14 0.00 92 1023.8
20181018043959 48 352 0.0 2.0 0.00 0.14 0.00 93 1023.7
20181018043503 49 357 1.0 3.0 0.00 0.14 0.00 93 1023.6
20181018043005 48 357 1.0 3.0 0.00 0.14 0.00 94 1023.6
20181018042512 48 2 1.0 3.0 0.00 0.14 0.00 94 1023.5
20181018042011 48 287 1.0 5.0 0.00 0.14 0.00 94 1023.4
20181018041457 48 285 1.0 5.0 0.00 0.14 0.00 94 1023.4
20181018041000 49 258 1.0 3.0 0.00 0.14 0.00 93 1023.4
20181018040504 49 331 0.0 3.0 0.00 0.14 0.00 93 1023.4
20181018040039 49 327 1.0 3.0 0.00 0.14 0.00 93 1023.4
20181018035510 49 337 0.0 0.0 0.00 0.16 0.14 93 1023.3
20181018035008 49 337 0.0 0.0 0.00 0.16 0.14 93 1023.4
20181018034513 49 337 0.0 0.0 0.00 0.16 0.14 93 1023.3
20181018034013 49 337 0.0 0.0 0.00 0.16 0.14 93 1023.2
20181018033515 49 337 0.0 0.0 0.00 0.16 0.14 93 1023.2
20181018033015 49 337 0.0 0.0 0.00 0.16 0.14 93 1023.2
20181018032502 49 337 0.0 0.0 0.00 0.16 0.14 92 1023.0
20181018032000 49 337 0.0 0.0 0.00 0.16 0.14 92 1023.0
20181018031504 49 337 0.0 0.0 0.00 0.16 0.14 91 1022.9
20181018031004 50 337 0.0 0.0 0.00 0.16 0.14 91 1022.9
20181018030507 50 337 0.0 0.0 0.00 0.16 0.14 91 1022.8
20181018030013 50 337 0.0 0.0 0.00 0.16 0.14 92 1022.8
20181018025458 50 337 0.0 0.0 0.00 0.16 0.14 92 1022.7
20181018024957 50 337 0.0 0.0 0.00 0.16 0.14 92 1022.7
20181018024504 50 337 0.0 0.0 0.00 0.16 0.14 92 1022.5
20181018024005 50 337 0.0 0.0 0.00 0.16 0.14 91 1022.5
20181018023511 51 337 0.0 0.0 0.00 0.16 0.14 91 1022.5
20181018023010 51 337 0.0 0.0 0.00 0.16 0.14 90 1022.5
20181018022516 51 337 0.0 0.0 0.00 0.16 0.14 90 1022.4
20181018022015 51 337 0.0 0.0 0.00 0.16 0.14 90 1022.3
20181018021459 51 337 0.0 0.0 0.00 0.16 0.14 89 1022.2
20181018020958 51 337 0.0 0.0 0.00 0.16 0.14 88 1022.1
20181018020503 52 337 0.0 0.0 0.00 0.16 0.14 88 1021.9
20181018020004 51 337 0.0 0.0 0.00 0.16 0.14 88 1021.8
20181018015510 52 337 0.0 0.0 0.00 0.16 0.14 88 1021.8
20181018015009 52 337 0.0 1.0 0.00 0.16 0.14 88 1021.7
20181018014513 52 337 0.0 1.0 0.00 0.16 0.14 88 1021.7
20181018014015 52 337 0.0 1.0 0.00 0.16 0.14 88 1021.6
20181018013458 52 337 0.0 1.0 0.00 0.16 0.14 89 1021.6
20181018012959 52 337 0.0 1.0 0.00 0.16 0.14 89 1021.4
20181018012505 52 337 0.0 1.0 0.00 0.16 0.14 89 1021.3
20181018012003 52 337 0.0 3.0 0.00 0.16 0.14 89 1021.1
20181018011507 53 337 1.0 3.0 0.00 0.16 0.14 89 1021.0
20181018011009 53 328 1.0 2.0 0.00 0.16 0.14 89 1020.9
20181018010516 53 214 0.0 2.0 0.00 0.16 0.14 88 1020.8
20181018010012 53 214 0.0 2.0 0.00 0.16 0.14 87 1020.7
20181018005458 53 214 0.0 2.0 0.00 0.16 0.14 86 1020.7
20181018004957 54 214 1.0 2.0 0.00 0.16 0.14 86 1020.6
20181018004503 54 214 1.0 2.0 0.00 0.16 0.14 85 1020.5
20181018004004 54 214 0.0 1.0 0.00 0.16 0.14 85 1020.4
20181018003508 54 214 0.0 0.0 0.00 0.16 0.14 85 1020.2
20181018003007 54 214 0.0 1.0 0.00 0.16 0.14 85 1020.2
20181018002513 54 214 0.0 1.0 0.00 0.16 0.14 84 1020.0
20181018002013 55 214 0.0 1.0 0.00 0.16 0.14 84 1020.0
20181018001516 55 214 0.0 2.0 0.00 0.16 0.14 83 1019.9
20181018001001 55 214 0.0 2.0 0.00 0.16 0.14 83 1019.9
20181018000503 55 211 0.0 3.0 0.00 0.16 0.14 82 1019.8
20181018000003 55 211 1.0 3.0 0.00 0.16 0.14 81 1019.7
20181017235510 56 214 0.0 1.0 0.00 0.16 0.14 81 1019.6
20181017235009 56 214 0.0 1.0 0.00 0.16 0.14 81 1019.6
20181017234515 56 214 0.0 1.0 0.00 0.16 0.14 80 1019.6
20181017234016 56 214 0.0 1.0 0.00 0.16 0.14 80 1019.6
20181017233458 56 214 0.0 2.0 0.00 0.16 0.14 81 1019.5
20181017232959 57 214 0.0 2.0 0.00 0.16 0.14 81 1019.4
20181017232505 57 258 1.0 3.0 0.00 0.16 0.14 81 1019.2
20181017232003 57 257 1.0 6.0 0.00 0.16 0.14 80 1019.0
20181017231507 57 212 1.0 6.0 0.00 0.16 0.14 80 1019.0
20181017231012 57 204 1.0 4.0 0.00 0.16 0.14 79 1018.8
20181017230516 58 236 1.0 3.0 0.00 0.16 0.14 77 1018.8
20181017225957 58 236 1.0 3.0 0.00 0.16 0.14 78 1018.7
20181017225503 59 260 0.0 2.0 0.00 0.16 0.14 76 1018.5
20181017225001 59 261 1.0 2.0 0.00 0.16 0.14 76 1018.5
20181017224506 59 261 1.0 1.0 0.00 0.16 0.14 74 1018.4
20181017224007 59 260 0.0 1.0 0.00 0.16 0.14 73 1018.3
20181017223511 59 260 0.0 1.0 0.00 0.16 0.14 71 1018.3
20181017223010 60 260 0.0 2.0 0.00 0.16 0.14 70 1018.2
20181017222516 60 260 0.0 2.0 0.00 0.16 0.14 70 1018.1
20181017222013 61 276 0.0 2.0 0.00 0.16 0.14 68 1018.1
20181017221501 61 276 0.0 5.0 0.00 0.16 0.14 68 1018.0
20181017221003 61 276 1.0 5.0 0.00 0.16 0.14 67 1018.0
20181017220504 62 181 1.0 7.0 0.00 0.16 0.14 65 1017.9
20181017220006 62 214 1.0 7.0 0.00 0.16 0.14 65 1017.7
20181017215512 62 205 1.0 4.0 0.00 0.16 0.14 64 1017.6
20181017215010 63 233 2.0 7.0 0.00 0.16 0.14 62 1017.6
20181017214514 63 186 3.0 7.0 0.00 0.16 0.14 61 1017.5
20181017214015 63 195 1.0 6.0 0.00 0.16 0.14 63 1017.5
20181017213458 64 216 1.0 7.0 0.00 0.16 0.14 60 1017.4
20181017212957 64 197 3.0 7.0 0.00 0.16 0.14 57 1017.5
20181017212502 65 182 3.0 8.0 0.00 0.16 0.14 57 1017.5
20181017212001 65 236 2.0 8.0 0.00 0.16 0.14 53 1017.5